Location: Putah Creek Observatory
(38.7021°N, 122.3865°W)
Time: 22:44:56
(UTC-07:00)

ISS - Pass Details

Date: 23 March 2019
Orbit: 408 x 410 km, 51.6° (Epoch: 25 April)

Event Time Altitude Azimuth Distance (km) Brightness Sun altitude
Rises 19:56:07 0° 232° (SW) 2,323 0.8 -7.0°
Reaches altitude 10° 19:58:12 10° 233° (SW) 1,465 -0.3 -7.4°
Maximum altitude 20:01:29 82° 322° (NW) 416 -3.7 -8.0°
Drops below altitude 10° 20:04:49 10° 50° (NE) 1,484 -1.4 -8.7°
Enters shadow 20:06:00 - 50° (NE) 1,972 -0.7 -8.9°
